Location: Litvinovka
(48.6667°N, 34.3500°E)
Time: 01:44:18
(UTC+00:00)

Spot 2 Rocket - Pass Details

Date: 18 September 2020
Orbit: 758 x 771 km, 98.6° (Epoch: 23 October)

Event Time Altitude Azimuth Distance (km) Brightness Sun altitude
Exits shadow 18:07:55 42° 68° (ENE) 1,077 3.9 -22.7°
Maximum altitude 18:07:58 42° 67° (ENE) 1,077 4.0 -22.7°
Drops below altitude 10° 18:12:42 10° 358° (N) 2,300 6.4 -23.4°
Sets 18:15:06 0° 351° (N) 3,229 7.3 -23.7°
